Flathead Lake Weather Center

Moon Phase Calendar



Flathead Lake Water Level
Online Cameras

 


      

Current Conditions in Lakeside
4/21/2024 8:35:20 PM

46°F
Feels Like 40
Clouds
Humidity
42%
Pressure
30.09"
Wind
11.2 mph (WSW)
Dew Point
25°F
UV Index
0/10 (Low)
Visibility
6 mi

Hourly Forecast

Date & Time Sun, Apr 21
8:00 PM
Sun, Apr 21
9:00 PM
Sun, Apr 21
10:00 PM
Sun, Apr 21
11:00 PM
Mon, Apr 22
12:00 AM
Mon, Apr 22
1:00 AM
Mon, Apr 22
2:00 AM
Mon, Apr 22
3:00 AM
Mon, Apr 22
4:00 AM
Mon, Apr 22
5:00 AM
Mon, Apr 22
6:00 AM
Mon, Apr 22
7:00 AM
Mon, Apr 22
8:00 AM
Mon, Apr 22
9:00 AM
Mon, Apr 22
10:00 AM
Mon, Apr 22
11:00 AM
Mon, Apr 22
12:00 PM
Mon, Apr 22
1:00 PM
Mon, Apr 22
2:00 PM
Mon, Apr 22
3:00 PM
Mon, Apr 22
4:00 PM
Mon, Apr 22
5:00 PM
Mon, Apr 22
6:00 PM
Mon, Apr 22
7:00 PM
Mon, Apr 22
8:00 PM
Mon, Apr 22
9:00 PM
Mon, Apr 22
10:00 PM
Mon, Apr 22
11:00 PM
Tue, Apr 23
12:00 AM
Tue, Apr 23
1:00 AM
Tue, Apr 23
2:00 AM
Tue, Apr 23
3:00 AM
Tue, Apr 23
4:00 AM
Tue, Apr 23
5:00 AM
Tue, Apr 23
6:00 AM
Tue, Apr 23
7:00 AM
Tue, Apr 23
8:00 AM
Tue, Apr 23
9:00 AM
Tue, Apr 23
10:00 AM
Tue, Apr 23
11:00 AM
Tue, Apr 23
12:00 PM
Tue, Apr 23
1:00 PM
Tue, Apr 23
2:00 PM
Tue, Apr 23
3:00 PM
Tue, Apr 23
4:00 PM
Tue, Apr 23
5:00 PM
Tue, Apr 23
6:00 PM
Tue, Apr 23
7:00 PM
Condition
Clouds

Clouds

Clouds

Clouds

Clouds

Clouds

Clouds

Clouds

Clouds

Clouds

Clouds

Clouds

Clouds

Clouds

Clouds

Clouds

Clouds

Clouds

Clouds

Clouds

Clouds

Clouds

Clouds

Clouds

Clouds

Clouds

Clouds

Clouds

Clouds

Clear

Clear

Clear

Clear

Clear

Clear

Clear

Clear

Clear

Clear

Clear

Clear

Clouds

Clouds

Clouds

Clouds

Clouds

Clouds

Clouds
Temperature 46°F46°F45°F44°F43°F40°F38°F37°F36°F35°F35°F35°F38°F41°F44°F46°F48°F50°F52°F53°F54°F54°F53°F52°F48°F45°F43°F41°F40°F39°F38°F37°F37°F36°F36°F36°F40°F45°F49°F51°F53°F54°F54°F54°F55°F56°F56°F56°F
Feels Like 40°F40°F40°F39°F38°F35°F32°F31°F30°F29°F28°F28°F32°F36°F39°F42°F44°F46°F48°F50°F50°F50°F49°F49°F48°F45°F43°F41°F40°F39°F38°F37°F34°F34°F36°F36°F40°F45°F49°F48°F50°F51°F51°F51°F52°F53°F53°F53°F
Cloudiness 56%54%54%55%56%56%55%67%64%59%57%40%31%25%33%25%28%68%66%61%61%62%60%63%62%43%29%22%18%0%0%0%0%0%0%0%0%0%0%1%6%47%67%79%76%72%73%88%
Visibility 6 mi6 mi6 mi6 mi6 mi6 mi6 mi6 mi6 mi6 mi6 mi6 mi6 mi6 mi6 mi6 mi6 mi6 mi6 mi6 mi6 mi6 mi6 mi6 mi6 mi6 mi6 mi6 mi6 mi6 mi6 mi6 mi6 mi6 mi6 mi6 mi6 mi6 mi6 mi6 mi6 mi6 mi6 mi6 mi6 mi6 mi6 mi6 mi
Precipitation 5%0%0%0%0%0%0%0%0%0%0%0%0%0%0%0%0%0%0%0%0%0%0%0%0%0%0%0%0%0%0%0%0%0%0%0%0%0%0%0%0%0%0%0%0%0%0%0%
Humidity 44%42%46%50%53%61%69%72%75%77%79%79%71%61%55%49%45%41%38%36%34%34%36%38%47%50%51%55%59%62%65%68%70%72%73%72%62%52%46%41%39%37%38%38%38%37%39%43%
Dew Point 26°F25°F26°F27°F27°F28°F27°F27°F27°F27°F27°F27°F27°F27°F27°F26°F26°F26°F25°F25°F25°F25°F25°F26°F27°F25°F24°F25°F25°F25°F26°F26°F26°F26°F26°F26°F26°F27°F27°F27°F27°F26°F26°F26°F27°F28°F29°F32°F
Pressure 30.09"30.09"30.09"30.09"30.12"30.12"30.12"30.12"30.15"30.15"30.15"30.15"30.12"30.12"30.09"30.06"30.03"30"29.97"29.97"29.94"29.94"29.94"29.94"29.97"30.03"30.06"30.09"30.09"30.12"30.15"30.15"30.15"30.15"30.18"30.18"30.15"30.12"30.06"30.03"30"29.97"29.97"29.97"29.94"29.91"29.91"29.88"
Wind Speed 13.5 mph11.2 mph9.2 mph9.6 mph8.3 mph8.2 mph8.2 mph8.1 mph8.4 mph8.4 mph8.1 mph7.4 mph7.5 mph7.4 mph7.2 mph7.1 mph8.1 mph8.8 mph8.6 mph6.8 mph5.8 mph5.3 mph4.2 mph2.8 mph0.7 mph1.3 mph1.4 mph1.4 mph2.4 mph2.7 mph2.8 mph2.9 mph3.2 mph3 mph2.6 mph2.2 mph1.8 mph1.8 mph2.6 mph2.4 mph2.2 mph1.7 mph2.7 mph3.7 mph5 mph4.9 mph4.7 mph4.3 mph
Wind
Direction
248°
WSW
241°
WSW
232°
SW
213°
SSW
205°
SSW
194°
SSW
198°
SSW
201°
SSW
200°
SSW
204°
SSW
205°
SSW
202°
SSW
207°
SSW
207°
SSW
208°
SSW
207°
SSW
186°
S
173°
S
170°
S
168°
SSE
162°
SSE
170°
S
165°
SSE
159°
SSE
135°
SE
54°
NE
97°
E
119°
ESE
89°
E
72°
ENE
60°
ENE
50°
NE
37°
NE
27°
NNE
32°
NNE
40°
NE
36°
NE

N
357°
N
337°
NNW
299°
WNW
261°
W
221°
SW
191°
S
178°
S
187°
S
182°
S
159°
SSE

Daily Forecast

Date High Low Precip. Humidity
Today
Apr 21

Snow
51 °F
38 °F
93%
37%
Monday
Apr 22

Clouds
54 °F
35 °F
0%
41%
Tuesday
Apr 23

Clouds
56 °F
36 °F
0%
37%
Wednesday
Apr 24

Clouds
62 °F
41 °F
0%
43%
Thursday
Apr 25

Rain
56 °F
43 °F
20%
51%
Friday
Apr 26

Rain
51 °F
44 °F
100%
69%
Saturday
Apr 27

Rain
51 °F
39 °F
100%
69%
Sunday
Apr 28

Rain
53 °F
40 °F
55%
56%
Monday
Apr 29

Rain
50 °F
43 °F
100%
66%
Tuesday
Apr 30

Snow
51 °F
37 °F
75%
39%
Wednesday
May 1

Clouds
56 °F
36 °F
0%
50%
Thursday
May 2

Clouds
64 °F
42 °F
0%
44%
Friday
May 3

Rain
69 °F
51 °F
20%
57%
Saturday
May 4

Rain
58 °F
47 °F
56%
66%
Sunday
May 5

Rain
53 °F
44 °F
100%
76%
Monday
May 6

Rain
50 °F
44 °F
100%
94%

Temperature 8-14 Day Outlook



Precipitation 8-14 Day Outlook






About Us
Contact Us
Site Map
Search Site
Advertise With Us
   
Flathead.USLakes.info
THE FLATHEAD LAKE WEBSITE

Copyright 2024, Lakes Online
Privacy    |    Legal